Location: Sternwarte auf dem Internationalen Platz Vogelsang IP
(50.5721°N, 6.4398°E)
Time: 22:25:37
(UTC+01:00)

Transit 2A Rocket - Pass Details

Date: 18 December 2025
Orbit: 581 x 903 km, 66.7° (Epoch: 12 January)

Event Time Altitude Azimuth Distance (km) Brightness Sun altitude
Rises 06:07:52 0° 151° (SSE) 3,317 8.9 -21.4°
Reaches altitude 10° 06:11:50 10° 123° (ESE) 2,461 8.6 -20.8°
Maximum altitude 06:14:02 12° 100° (E) 2,332 8.6 -20.4°
Drops below altitude 10° 06:16:17 10° 78° (ENE) 2,528 8.6 -20.1°
Sets 06:20:28 0° 50° (NE) 3,513 9.0 -19.5°
